Location: Unspecified
(0.0000°N, 0.0000°E)
Time: 01:07:40
(UTC+00:00)

MANDRAKE 2 BAKER - Pass Details

Date: 16 February 2026
Orbit: 402 x 407 km, 97.7° (Epoch: 7 March)

Event Time Altitude Azimuth Distance (km) Brightness Sun altitude
Rises 05:33:51 0° 170° (S) 2,339 ? -9.8°
Reaches altitude 10° 05:35:51 10° 171° (S) 1,472 ? -9.3°
Maximum altitude 05:38:59 80° 259° (WSW) 416 ? -8.6°
Drops below altitude 10° 05:42:06 10° 346° (NNW) 1,457 ? -7.8°
Sets 05:44:04 0° 347° (NNW) 2,310 ? -7.3°
